Terminal Aerodrome Forecast
Issued by NWS

Home | Current Version | Previous Version | Text Only | Print | Product List | Glossary On
Versions: 1 2 3 4 5 6 7 8 9 10 11 12 13 14 15 16 17 18 19 20 21 22 23 24 25 26 27 28
000
FTUS46 KSGX 021517 AAA
TAFSAN
TAF AMD
KSAN 021517Z 0215/0318 11006KT P6SM -SHRA BKN030 BKN060
     FM021700 18012KT P6SM -SHRA VCTS SCT025 BKN040CB
     FM022000 20012KT P6SM -SHRA VCTS SCT030 BKN040CB
     FM030300 VRB05KT P6SM VCSH FEW025 BKN060
     FM031100 VRB06KT P6SM -SHRA VCTS SCT025 BKN035CB
     FM031600 VRB04KT P6SM VCSH SCT025 BKN040=

USA.gov is the U.S. government's official web portal to all federal, state and local government web resources and services.